[[{"header":{"parameterUnit":"m.s-1","parameterCategory":1,"la1":30.2991,"la2":30.254,"lo1":-89.0895,"lo2":-89.0444,"dy":0.0017,"dx":0.0017,"nx":28,"ny":28,"refTime":"2024-08-07T09:00:00:Z","depth":0,"parameterNumber":2,"parameterNumberName":"U-component_of_WINDS"},"data":[0,0,0,0,0,0,0,0,0,0,0,0,0,0,0,0,0,0,0,0,0,0,0,0,0,0,0,0,0,0,0,0,0,0,0,0,0,0,0,0,0,0,0,0,0,0,0,0,0,0,0,0,0,0,0,0,0,0,1.1771,1.177,0,1.168,1.1679,1.1678,1.1589,1.1587,1.1586,1.1585,1.1494,1.1492,1.1491,0,0,0,0,0,0,0,0,0,0,0,0,0,1.1868,1.1866,1.1771,1.177,1.1769,1.1681,1.1679,1.1678,1.1589,1.1587,1.1586,1.1585,1.1494,1.1492,1.1491,0,0,0,0,0,0,0,0,0,0,0,0,0,1.1807,1.1866,1.1771,1.1713,1.1707,1.1681,1.1679,1.1678,1.1589,1.1587,1.1586,1.1584,1.1495,1.1493,1.1491,1.1514,0,0,1.1485,1.1484,0,0,0,0,0,0,0,0,1.181,1.1803,1.1723,1.1717,1.1711,1.1644,1.168,1.1623,1.159,1.1634,1.1585,1.1583,1.1545,1.1539,1.1526,1.151,1.1506,1.1484,1.1483,1.1482,1.1482,0,0,0,0,0,0,0,1.1814,1.1806,1.1735,1.1722,1.1714,1.1693,1.1682,1.1669,1.1601,1.163,1.1623,1.1614,1.1541,1.1528,1.1523,1.1504,1.1484,1.1483,1.1481,1.1481,1.1504,1.1506,0,0,0,0,0,0,1.1827,1.1811,1.1738,1.1732,1.1757,1.1692,1.168,1.1667,1.1601,1.1589,1.1615,1.161,1.1532,1.1525,1.1519,1.1543,1.1482,1.148,1.1479,1.1502,1.1505,1.1507,0,0,0,0,0,0,1.183,1.1822,1.1742,1.177,1.1758,1.1693,1.1678,1.1666,1.1653,1.159,1.1577,1.1614,1.1531,1.1522,1.1516,1.1539,1.148,1.1478,1.15,1.1503,1.1506,1.1591,0,0,0,0,0,0,1.1833,1.1823,1.1831,1.177,1.1757,1.174,1.168,1.1666,1.1649,1.1641,1.1585,1.1574,1.1529,1.152,1.1514,1.1535,1.1476,1.1498,1.1502,1.1505,1.1586,1.1596,1.1605,0,0,0,0,0,1.1837,1.1858,1.1832,1.1823,1.1765,1.1741,1.1733,1.168,1.1652,1.1659,1.1619,1.1576,1.1537,1.152,1.1513,1.1533,1.1496,1.1501,1.1504,1.1581,1.1594,1.1605,0,0,0,0,0,0,1.1923,1.1849,1.1819,1.1822,1.1788,1.1726,1.1734,1.1695,1.1669,1.1663,1.1599,1.1587,1.1588,1.156,1.1542,1.1553,1.1511,1.1514,1.1572,1.1583,1.1593,1.16,1.1474,0,0,0,0,0,1.1942,1.1929,1.1865,1.1874,1.1859,1.18,1.1787,1.1749,1.1712,1.1698,1.1657,1.1623,1.1603,1.1591,1.157,1.1581,1.1568,1.1592,1.1602,1.161,1.1613,1.1618,1.1629,1.152,1.152,1.152,0,0,1.1982,1.194,1.1936,1.189,1.186,1.1848,1.1788,1.1778,1.1768,1.1696,1.1688,1.1657,1.1615,1.1618,1.1618,1.1595,1.164,1.1615,1.1622,1.1621,1.1624,1.1634,1.1643,1.1523,1.1522,1.1522,0,0,1.2049,1.2015,1.2019,1.199,1.1945,1.1906,1.1907,1.1851,1.1828,1.1818,1.1764,1.1753,1.172,1.1692,1.1674,1.1732,1.1692,1.1727,1.1778,1.1783,1.1792,1.1799,1.1821,1.1829,1.173,1.1731,1.1731,0,1.2104,1.2083,1.2026,1.2019,1.2001,1.1936,1.194,1.1914,1.1865,1.1855,1.183,1.1788,1.1755,1.1751,1.1766,1.1753,1.1753,1.1733,1.1795,1.1802,1.1808,1.1828,1.1836,1.1735,1.1735,1.1734,1.1734,0,1.2154,1.2141,1.2149,1.2103,1.2086,1.2085,1.2029,1.2018,1.1983,1.1946,1.1939,1.1897,1.1866,1.1862,1.1827,1.1854,1.1842,1.1807,1.1763,1.1824,1.1841,1.1849,1.1742,1.174,1.1739,1.1738,0,0,1.2271,1.2195,1.2199,1.2178,1.2124,1.2113,1.2109,1.2079,1.2072,1.2041,1.2037,1.2011,1.1979,1.1958,1.192,1.1925,1.1975,1.1889,1.1887,1.1907,1.2003,1.2031,1.204,1.1948,1.1949,1.195,1.2007,0,1.2329,1.2318,1.2267,1.2272,1.2259,1.2198,1.2194,1.2162,1.2128,1.2113,1.2076,1.2059,1.2017,1.2005,1.2007,1.1968,1.1993,1.1963,1.1944,1.1944,1.1957,1.2049,1.2077,1.2133,1.2014,1.2015,1.2016,0,1.2395,1.2368,1.2371,1.2319,1.2312,1.231,1.2279,1.2265,1.2227,1.2202,1.2181,1.2137,1.2131,1.209,1.2081,1.2062,1.2051,1.2031,1.2032,1.2028,1.1984,1.2049,1.215,1.2159,1.2026,1.2025,1.2024,0,1.2482,1.2446,1.2444,1.2427,1.2366,1.2366,1.2341,1.2301,1.2287,1.226,1.225,1.2223,1.2208,1.2189,1.214,1.2114,1.2137,1.2092,1.2117,1.2118,1.2125,1.2125,1.2226,1.2117,1.2117,1.2117,1.2117,0,1.2552,1.2556,1.2482,1.2481,1.2484,1.2426,1.2432,1.2401,1.2366,1.2358,1.2303,1.2297,1.2232,1.2219,1.2181,1.218,1.2173,1.2154,1.2144,1.2159,1.2162,1.2151,1.2146,1.2119,1.2118,1.2118,1.2118,0,1.2649,1.2599,1.2593,1.2535,1.2521,1.2527,1.2478,1.2475,1.2438,1.2429,1.2424,1.2366,1.2348,1.2297,1.2266,1.224,1.2251,1.2231,1.2264,1.2257,1.2286,1.2284,1.2384,1.2395,1.2279,1.228,1.2281,0,1.2697,1.2699,1.2643,1.2633,1.261,1.2596,1.2581,1.2525,1.2512,1.247,1.2472,1.2449,1.2428,1.2402,1.2358,1.2334,1.2314,1.2351,1.231,1.2326,1.2316,1.2317,1.2317,1.236,1.2362,1.2363,1.2364,0,1.2788,1.2764,1.2745,1.2717,1.2701,1.2677,1.265,1.2645,1.2582,1.2571,1.2551,1.2535,1.2503,1.2482,1.2452,1.2426,1.2385,1.2377,1.2382,1.2398,1.2417,1.2408,1.2289,1.2375,1.2374,1.2373,1.2373,1.2372,1.2863,1.2862,1.2823,1.2804,1.2777,1.2753,1.2748,1.2711,1.2694,1.2664,1.2632,1.2616,1.258,1.2534,1.2512,1.25,1.2478,1.2484,1.2486,1.2489,1.2497,1.2419,1.2494,1.2493,1.2493,1.2493,1.2492,0,1.2952,1.2924,1.2907,1.287,1.2856,1.2818,1.2786,1.2777,1.2764,1.2733,1.2714,1.2693,1.2672,1.2627,1.2602,1.2602,1.2582,1.2597,1.2597,1.2592,1.2517,1.2516,1.2613,1.2613,1.2613,1.2613,1.2613,1.2613,1.2996,1.2994,1.2966,1.295,1.2922,1.2906,1.2892,1.287,1.2845,1.2824,1.2806,1.2777,1.2741,1.2713,1.2693,1.2681,1.2675,1.2696,1.2678,1.2608,1.2597,1.2586,1.2585,1.2695,1.2695,1.2753,1.2754,1.2754]},{"header":{"parameterUnit":"m.s-1","parameterCategory":1,"la1":30.2991,"la2":30.254,"lo1":-89.0895,"lo2":-89.0444,"dy":0.0017,"dx":0.0017,"nx":28,"ny":28,"refTime":"2024-08-07T09:00:00:Z","depth":0,"parameterNumber":3,"parameterNumberName":"V-component_of_WINDS"},"data":[0,0,0,0,0,0,0,0,0,0,0,0,0,0,0,0,0,0,0,0,0,0,0,0,0,0,0,0,0,0,0,0,0,0,0,0,0,0,0,0,0,0,0,0,0,0,0,0,0,0,0,0,0,0,0,0,0,0,-4.9011,-4.9012,0,-4.9154,-4.9156,-4.9157,-4.9186,-4.9185,-4.9184,-4.9183,-4.9326,-4.933,-4.9335,0,0,0,0,0,0,0,0,0,0,0,0,0,-4.8759,-4.8764,-4.9011,-4.9012,-4.9014,-4.9154,-4.9156,-4.9158,-4.9186,-4.9185,-4.9184,-4.9182,-4.9324,-4.933,-4.9335,0,0,0,0,0,0,0,0,0,0,0,0,0,-4.8882,-4.8765,-4.901,-4.9045,-4.905,-4.9153,-4.9156,-4.9158,-4.9187,-4.9185,-4.9183,-4.9182,-4.9322,-4.9329,-4.9336,-4.9413,0,0,-4.9358,-4.9361,0,0,0,0,0,0,0,0,-4.8875,-4.8891,-4.9038,-4.9043,-4.9049,-4.9151,-4.9119,-4.9244,-4.9187,-4.9135,-4.9183,-4.9181,-4.9268,-4.928,-4.931,-4.942,-4.9426,-4.9359,-4.9363,-4.9366,-4.9368,0,0,0,0,0,0,0,-4.8866,-4.8885,-4.9067,-4.9041,-4.9047,-4.9053,-4.9069,-4.9143,-4.9209,-4.9139,-4.9141,-4.9158,-4.9271,-4.9303,-4.9314,-4.9428,-4.9359,-4.9365,-4.937,-4.9372,-4.9609,-4.9611,0,0,0,0,0,0,-4.8852,-4.8878,-4.9063,-4.9072,-4.8956,-4.9059,-4.9076,-4.9119,-4.9208,-4.922,-4.9159,-4.9159,-4.9292,-4.9305,-4.9319,-4.9415,-4.9366,-4.9373,-4.9377,-4.9607,-4.961,-4.9612,0,0,0,0,0,0,-4.8847,-4.8868,-4.9057,-4.8976,-4.9,-4.9065,-4.9113,-4.9123,-4.9156,-4.9224,-4.9235,-4.9181,-4.9291,-4.9309,-4.939,-4.9421,-4.9376,-4.9383,-4.9605,-4.9608,-4.9611,-4.9609,0,0,0,0,0,0,-4.8839,-4.8866,-4.8897,-4.8976,-4.9004,-4.9126,-4.9115,-4.9127,-4.9168,-4.9169,-4.9247,-4.9258,-4.9291,-4.9379,-4.9397,-4.943,-4.9389,-4.9603,-4.9606,-4.961,-4.9606,-4.9611,-4.9615,0,0,0,0,0,-4.883,-4.8889,-4.8898,-4.892,-4.9044,-4.9128,-4.9144,-4.9182,-4.9171,-4.9202,-4.9246,-4.9255,-4.9415,-4.9387,-4.9408,-4.9443,-4.9601,-4.9605,-4.961,-4.9604,-4.961,-4.9615,0,0,0,0,0,0,-4.881,-4.89,-4.8911,-4.8998,-4.9055,-4.9133,-4.9173,-4.9187,-4.9248,-4.9246,-4.929,-4.9307,-4.9386,-4.9423,-4.9391,-4.9523,-4.9507,-4.9516,-4.9496,-4.9502,-4.9506,-4.9495,-4.9395,0,0,0,0,0,-4.8816,-4.8878,-4.8953,-4.9022,-4.9051,-4.9107,-4.9145,-4.917,-4.9231,-4.9255,-4.9304,-4.9362,-4.9425,-4.9466,-4.9528,-4.9612,-4.9629,-4.9647,-4.9651,-4.9654,-4.9661,-4.9709,-4.9717,-4.9626,-4.9626,-4.9626,0,0,-4.8828,-4.8885,-4.8922,-4.902,-4.9067,-4.913,-4.9127,-4.9193,-4.924,-4.9264,-4.9345,-4.9383,-4.945,-4.9534,-4.9573,-4.9567,-4.969,-4.966,-4.9662,-4.9667,-4.9714,-4.9723,-4.973,-4.9629,-4.9629,-4.9628,0,0,-4.8883,-4.8932,-4.8996,-4.9044,-4.9117,-4.9154,-4.9169,-4.9245,-4.9272,-4.9354,-4.9374,-4.943,-4.9538,-4.9585,-4.9623,-4.9697,-4.9708,-4.9716,-4.9739,-4.9785,-4.9792,-4.9799,-4.9825,-4.9834,-4.9723,-4.9723,-4.9723,0,-4.8888,-4.8984,-4.9026,-4.9092,-4.9134,-4.9162,-4.9226,-4.927,-4.9359,-4.9387,-4.938,-4.9516,-4.9563,-4.9658,-4.9677,-4.9707,-4.9725,-4.9707,-4.9788,-4.9795,-4.9802,-4.9827,-4.9837,-4.9723,-4.9723,-4.9723,-4.9723,0,-4.8988,-4.9054,-4.9096,-4.9183,-4.9231,-4.9295,-4.9346,-4.9389,-4.941,-4.9448,-4.953,-4.9588,-4.9663,-4.9687,-4.9708,-4.9786,-4.978,-4.978,-4.9764,-4.981,-4.9835,-4.9845,-4.9724,-4.9724,-4.9724,-4.9723,0,0,-4.9032,-4.9142,-4.9157,-4.9197,-4.928,-4.9331,-4.9397,-4.9472,-4.9507,-4.9568,-4.9624,-4.9715,-4.9717,-4.976,-4.9786,-4.9826,-4.9881,-4.9822,-4.9824,-4.983,-4.997,-4.9969,-4.998,-4.989,-4.9892,-4.9894,-4.9965,0,-4.9096,-4.9215,-4.9256,-4.9354,-4.9416,-4.9444,-4.9501,-4.9558,-4.9595,-4.9652,-4.9693,-4.9757,-4.9754,-4.978,-4.9822,-4.9866,-4.991,-4.9861,-4.9941,-4.9944,-4.9923,-4.9993,-4.9992,-5.0056,-4.9975,-4.9976,-4.9977,0,-4.9186,-4.925,-4.9355,-4.9431,-4.9458,-4.9509,-4.9581,-4.9636,-4.9701,-4.9725,-4.9774,-4.9798,-4.9867,-4.9849,-4.9945,-4.9911,-4.9946,-4.9973,-4.9976,-4.9984,-4.9962,-5.0002,-5.0077,-5.0086,-4.9993,-4.9992,-4.9991,0,-4.9207,-4.9319,-4.9397,-4.943,-4.9521,-4.9556,-4.9595,-4.9659,-4.9701,-4.9764,-4.9792,-4.9861,-4.9899,-4.9951,-4.9993,-4.9976,-5.0085,-5.007,-5.0106,-5.0105,-5.0127,-5.0125,-5.0208,-5.0151,-5.0151,-5.015,-5.015,0,-4.9274,-4.9337,-4.9408,-4.9455,-4.9527,-4.9572,-4.9642,-4.9682,-4.9739,-4.9794,-4.9823,-4.9874,-4.9926,-4.9984,-5.0017,-5.0091,-5.0108,-5.0129,-5.0137,-5.0126,-5.0123,-5.0149,-5.0145,-5.0153,-5.0153,-5.0152,-5.0152,0,-4.9308,-4.9359,-4.9445,-4.9525,-4.9546,-4.9596,-4.9663,-4.971,-4.975,-4.982,-4.9839,-4.99,-4.997,-5.0017,-5.0106,-5.0128,-5.0208,-5.0216,-5.0187,-5.019,-5.0224,-5.022,-5.0325,-5.0341,-5.0274,-5.0275,-5.0275,0,-4.9347,-4.9397,-4.9482,-4.9522,-4.9562,-4.9626,-4.967,-4.9717,-4.9762,-4.984,-4.9878,-4.995,-5.001,-5.012,-5.0172,-5.024,-5.0249,-5.0281,-5.0259,-5.0247,-5.0249,-5.0245,-5.025,-5.0284,-5.0285,-5.0285,-5.0285,0,-4.941,-4.9433,-4.9496,-4.9568,-4.9621,-4.9679,-4.9738,-4.9769,-4.9826,-4.9875,-4.9947,-4.9994,-5.0086,-5.0157,-5.0231,-5.027,-5.0287,-5.0292,-5.0304,-5.0293,-5.0274,-5.0284,-5.0195,-5.0289,-5.0289,-5.0289,-5.0288,-5.0288,-4.9448,-4.9494,-4.9562,-4.9631,-4.9681,-4.9735,-4.9784,-4.983,-4.9892,-4.9971,-4.9995,-5.0071,-5.0135,-5.0236,-5.0277,-5.0336,-5.0333,-5.035,-5.0354,-5.0357,-5.0357,-5.0266,-5.0349,-5.0349,-5.0349,-5.0349,-5.0349,0,-4.9512,-4.9558,-4.9622,-4.9704,-4.9758,-4.9772,-4.9838,-4.9882,-4.9949,-5.0008,-5.0067,-5.0151,-5.022,-5.0278,-5.035,-5.0386,-5.0396,-5.0403,-5.04,-5.0409,-5.0356,-5.0338,-5.0394,-5.0394,-5.0394,-5.0394,-5.0394,-5.0394,-4.9552,-4.963,-4.9661,-4.9764,-4.9809,-4.9884,-4.9921,-4.9971,-5.0019,-5.0111,-5.017,-5.0208,-5.0267,-5.0343,-5.0407,-5.0422,-5.0447,-5.0453,-5.0469,-5.0418,-5.0413,-5.0408,-5.0392,-5.0458,-5.0458,-5.0518,-5.0518,-5.0519]}]]